Location: Fours
(44.3167°N, 6.7000°E)
Time: 18:30:32
(UTC+00:00)

Cosmos 1515 Rocket - Pass Details

Date: 30 November 2020
Orbit: 605 x 631 km, 82.5° (Epoch: 23 January)

Event Time Altitude Azimuth Distance (km) Brightness Sun altitude
Rises 16:56:29 0° 165° (SSE) 2,866 7.0 -10.7°
Reaches altitude 10° 16:58:49 10° 156° (SSE) 1,971 6.1 -11.1°
Maximum altitude 17:02:47 35° 91° (E) 1,003 4.1 -11.7°
Drops below altitude 10° 17:06:49 10° 26° (NNE) 2,001 5.8 -12.4°
Enters shadow 17:07:34 - 22° (NNE) 2,286 6.1 -12.5°
